Home   Weather   Houston   Past weeks

Flag for USA Past Weather in Houston, Texas, USA — Yesterday and Last 2 Weeks

Now
77 °F

Broken clouds.


Feels Like: 78 °F
Forecast: 78 / 88 °F
Wind: No wind

Location: Houston Hobby Airport

Current Time: Sep 25, 2016 at 9:06:13 AM

Latest Report: Sep 25, 2016 at 7:53 AM


Visibility: 10 mi

Pressure: 29.98 "Hg

Humidity: 94%

Dew Point: 75 °F

Location of HoustonLocation

Past Weather in Houston — Graph

°F

Houston Temperature Yesterday

Maximum temperature yesterday: 88 °F (at 12:53 PM)
Minimum temperature yesterday: 77 °F (at 5:53 AM)
Average temperature yesterday: 79 °F

High & Low Weather Summary for the Past Weeks

 TemperatureHumidityPressure
High96 °F (Sep 18, 3:53 PM)97% (Sep 10, 7:53 AM)30.13 "Hg (Sep 10, 7:53 AM)
Low73 °F (Sep 11, 5:53 AM)38% (Sep 21, 3:53 PM)29.87 "Hg (Sep 16, 5:53 PM)
Average83 °F77%29.99 "Hg
* Reported Sep 10 7:53 AM — Sep 25 7:53 AM, Houston, Weather by CustomWeather, © 2016

Note: Actual official high and low records may vary slightly from our data, if they occured in-between our weather recording intervals... More about our weather records

Advertising

Houston Weather History for the Previous 24 Hours

Scroll right to see more
 ConditionsComfort  
Time TempWeatherWind HumidityBarometerVisibility
7:53 AM
Sun, Sep 25
77 °FBroken clouds.No wind94%29.98 "Hg10 mi
6:53 AM77 °FPartly cloudy.No wind94%29.98 "Hg10 mi
5:53 AM77 °FPassing clouds.3 mph94%29.96 "Hg10 mi
4:53 AM77 °FPassing clouds.3 mph94%29.96 "Hg10 mi
3:53 AM78 °FPassing clouds.3 mph90%29.96 "Hg10 mi
2:53 AM77 °FPassing clouds.5 mph94%29.98 "Hg10 mi
1:53 AM77 °FPartly cloudy.3 mph90%29.97 "Hg10 mi
12:53 AM77 °FPassing clouds.No wind90%29.96 "Hg10 mi
11:53 PM
Sat, Sep 24
77 °FPassing clouds.No wind90%29.96 "Hg10 mi
10:53 PM77 °FPassing clouds.5 mph94%29.96 "Hg10 mi
9:53 PM78 °FPartly cloudy.3 mph90%29.94 "Hg10 mi
8:53 PM79 °FPartly cloudy.No wind90%29.95 "Hg10 mi
7:53 PM80 °FPartly cloudy.No wind87%29.94 "Hg10 mi
6:53 PM81 °FBroken clouds.No wind85%29.95 "Hg10 mi
5:53 PM81 °FBroken clouds.7 mph85%29.95 "Hg10 mi
4:53 PM78 °FBroken clouds.6 mph87%29.97 "Hg10 mi
3:53 PM77 °FThunderstorms. Broken clouds.8 mph94%29.97 "Hg10 mi
2:53 PM78 °FThunderstorms. Partly sunny.7 mph90%30.00 "Hg10 mi
2:00 PM79 °FThunderstorms. Fog.8 mph88%29.99 "Hg5 mi
12:53 PM88 °FPartly sunny.3 mph67%30.01 "Hg10 mi
11:53 AM81 °FBroken clouds.6 mph88%30.03 "Hg10 mi
10:53 AM78 °FThunderstorms. Broken clouds.3 mph90%30.03 "Hg10 mi
9:53 AM78 °FLight rain. Broken clouds.6 mph90%30.04 "Hg10 mi
Weather by CustomWeather, © 2016

See weather overviewHow to use our weather pages